Time,TemperatureF,DewpointF,PressureIn,WindDirection,WindDirectionDegrees,WindSpeedMPH,WindSpeedGustMPH,Humidity,HourlyPrecipIn,Conditions,Clouds,dailyrainin,SoftwareType,DateUTC
2013-07-23 00:00:00,50.0,18.0,-100.00,ESE,111,1.0,3.0,27,-99.99,,,-99.99,,2013-07-23 06:00:00,
2013-07-23 00:42:00,50.0,18.0,-100.00,ESE,111,1.0,3.0,27,-99.99,,,-99.99,,2013-07-23 06:42:00,
2013-07-23 00:52:00,50.0,18.0,-100.00,ESE,111,1.0,3.0,27,-99.99,,,-99.99,,2013-07-23 06:52:00,
2013-07-23 01:00:00,51.0,17.0,-100.00,East,81,1.0,3.0,26,-99.99,,,-99.99,,2013-07-23 07:00:00,
2013-07-23 01:42:00,51.0,17.0,-100.00,East,81,1.0,3.0,26,-99.99,,,-99.99,,2013-07-23 07:42:00,
2013-07-23 01:52:00,51.0,17.0,-100.00,East,81,1.0,3.0,26,-99.99,,,-99.99,,2013-07-23 07:52:00,
2013-07-23 02:00:00,52.0,20.0,-100.00,ENE,68,1.0,3.0,28,-99.99,,,-99.99,,2013-07-23 08:00:00,
2013-07-23 02:43:00,52.0,20.0,-100.00,ENE,68,1.0,3.0,28,-99.99,,,-99.99,,2013-07-23 08:43:00,
2013-07-23 02:52:00,52.0,20.0,-100.00,ENE,68,1.0,3.0,28,-99.99,,,-99.99,,2013-07-23 08:52:00,
2013-07-23 03:00:00,49.0,23.0,-100.00,East,100,1.0,2.0,35,-99.99,,,-99.99,,2013-07-23 09:00:00,
2013-07-23 03:43:00,49.0,23.0,-100.00,East,100,1.0,2.0,35,-99.99,,,-99.99,,2013-07-23 09:43:00,
2013-07-23 03:53:00,49.0,23.0,-100.00,East,100,1.0,2.0,35,-99.99,,,-99.99,,2013-07-23 09:53:00,
2013-07-23 04:00:00,48.0,21.0,-100.00,East,86,0.0,1.0,34,-99.99,,,-99.99,,2013-07-23 10:00:00,
2013-07-23 04:44:00,48.0,21.0,-100.00,East,86,0.0,1.0,34,-99.99,,,-99.99,,2013-07-23 10:44:00,
2013-07-23 04:52:00,48.0,21.0,-100.00,East,86,0.0,1.0,34,-99.99,,,-99.99,,2013-07-23 10:52:00,
2013-07-23 05:00:00,47.0,19.0,-100.00,East,83,0.0,2.0,32,-99.99,,,-99.99,,2013-07-23 11:00:00,
2013-07-23 05:43:00,47.0,19.0,-100.00,East,83,0.0,2.0,32,-99.99,,,-99.99,,2013-07-23 11:43:00,
2013-07-23 05:52:00,47.0,19.0,-100.00,East,83,0.0,2.0,32,-99.99,,,-99.99,,2013-07-23 11:52:00,
2013-07-23 06:00:00,48.0,18.0,-100.00,ENE,76,0.0,2.0,30,-99.99,,,-99.99,,2013-07-23 12:00:00,
2013-07-23 06:43:00,48.0,18.0,-100.00,ENE,76,0.0,2.0,30,-99.99,,,-99.99,,2013-07-23 12:43:00,
2013-07-23 07:00:00,47.0,18.0,-100.00,ESE,112,0.0,1.0,31,-99.99,,,-99.99,,2013-07-23 13:00:00,
2013-07-23 07:43:00,47.0,18.0,-100.00,ESE,112,0.0,1.0,31,-99.99,,,-99.99,,2013-07-23 13:43:00,
2013-07-23 07:52:00,47.0,18.0,-100.00,ESE,112,0.0,1.0,31,-99.99,,,-99.99,,2013-07-23 13:52:00,
2013-07-23 08:00:00,48.0,20.0,-100.00,ESE,112,1.0,2.0,33,-99.99,,,-99.99,,2013-07-23 14:00:00,
2013-07-23 08:44:00,48.0,20.0,-100.00,ESE,112,1.0,2.0,33,-99.99,,,-99.99,,2013-07-23 14:44:00,
2013-07-23 08:53:00,48.0,20.0,-100.00,ESE,112,1.0,2.0,33,-99.99,,,-99.99,,2013-07-23 14:53:00,
2013-07-23 09:43:00,53.0,23.0,-100.00,SE,135,1.0,3.0,31,-99.99,,,-99.99,,2013-07-23 15:43:00,
2013-07-23 10:00:00,60.0,19.0,-100.00,NNE,13,1.0,5.0,20,-99.99,,,-99.99,,2013-07-23 16:00:00,
2013-07-23 10:43:00,60.0,19.0,-100.00,NNE,13,1.0,5.0,20,-99.99,,,-99.99,,2013-07-23 16:43:00,
2013-07-23 10:52:00,60.0,19.0,-100.00,NNE,13,1.0,5.0,20,-99.99,,,-99.99,,2013-07-23 16:52:00,
2013-07-23 11:00:00,64.0,17.0,-100.00,NNW,339,2.0,9.0,15,-99.99,,,-99.99,,2013-07-23 17:00:00,
2013-07-23 11:42:00,64.0,17.0,-100.00,NNW,339,2.0,9.0,15,-99.99,,,-99.99,,2013-07-23 17:42:00,
2013-07-23 11:56:00,64.0,17.0,-100.00,NNW,339,2.0,9.0,15,-99.99,,,-99.99,,2013-07-23 17:56:00,
2013-07-23 12:00:00,66.0,17.0,-100.00,North,353,4.0,13.0,15,-99.99,,,-99.99,,2013-07-23 18:00:00,
2013-07-23 12:49:00,66.0,17.0,-100.00,North,353,4.0,13.0,15,-99.99,,,-99.99,,2013-07-23 18:49:00,
2013-07-23 12:57:00,66.0,17.0,-100.00,North,353,4.0,13.0,15,-99.99,,,-99.99,,2013-07-23 18:57:00,
2013-07-23 13:00:00,68.0,20.0,-100.00,NNW,340,4.0,16.0,16,-99.99,,,-99.99,,2013-07-23 19:00:00,
2013-07-23 13:48:00,68.0,20.0,-100.00,NNW,340,4.0,16.0,16,-99.99,,,-99.99,,2013-07-23 19:48:00,
2013-07-23 13:55:00,68.0,20.0,-100.00,NNW,340,4.0,16.0,16,-99.99,,,-99.99,,2013-07-23 19:55:00,
2013-07-23 14:00:00,68.0,20.0,-100.00,NNW,337,5.0,16.0,15,-99.99,,,-99.99,,2013-07-23 20:00:00,
2013-07-23 14:47:00,68.0,20.0,-100.00,NNW,337,5.0,16.0,15,-99.99,,,-99.99,,2013-07-23 20:47:00,
2013-07-23 14:59:00,68.0,20.0,-100.00,NNW,337,5.0,16.0,15,-99.99,,,-99.99,,2013-07-23 20:59:00,
2013-07-23 15:00:00,69.0,21.0,-100.00,NW,320,4.0,14.0,15,-99.99,,,-99.99,,2013-07-23 21:00:00,
2013-07-23 15:48:00,69.0,21.0,-100.00,NW,320,4.0,14.0,15,-99.99,,,-99.99,,2013-07-23 21:48:00,
2013-07-23 15:57:00,69.0,21.0,-100.00,NW,320,4.0,14.0,15,-99.99,,,-99.99,,2013-07-23 21:57:00,
2013-07-23 17:46:00,70.0,20.0,-100.00,NNW,341,5.0,15.0,14,-99.99,,,-99.99,,2013-07-23 23:46:00,
2013-07-23 17:58:00,70.0,20.0,-100.00,NNW,341,5.0,15.0,14,-99.99,,,-99.99,,2013-07-23 23:58:00,
2013-07-23 18:00:00,68.0,21.0,-100.00,NNW,345,5.0,14.0,16,-99.99,,,-99.99,,2013-07-24 00:00:00,
2013-07-23 18:50:00,68.0,21.0,-100.00,NNW,345,5.0,14.0,16,-99.99,,,-99.99,,2013-07-24 00:50:00,
2013-07-23 18:58:00,68.0,21.0,-100.00,NNW,345,5.0,14.0,16,-99.99,,,-99.99,,2013-07-24 00:58:00,
2013-07-23 19:00:00,67.0,23.0,-100.00,North,10,2.0,9.0,18,-99.99,,,-99.99,,2013-07-24 01:00:00,
2013-07-23 19:47:00,67.0,23.0,-100.00,North,10,2.0,9.0,18,-99.99,,,-99.99,,2013-07-24 01:47:00,
2013-07-23 20:48:00,64.0,20.0,-100.00,NNE,32,1.0,4.0,18,-99.99,,,-99.99,,2013-07-24 02:48:00,
2013-07-23 20:56:00,64.0,20.0,-100.00,NNE,32,1.0,4.0,18,-99.99,,,-99.99,,2013-07-24 02:56:00,
2013-07-23 21:00:00,59.0,21.0,-100.00,East,81,1.0,5.0,22,-99.99,,,-99.99,,2013-07-24 03:00:00,
2013-07-23 21:46:00,59.0,21.0,-100.00,East,81,1.0,5.0,22,-99.99,,,-99.99,,2013-07-24 03:46:00,
2013-07-23 21:57:00,59.0,21.0,-100.00,East,81,1.0,5.0,22,-99.99,,,-99.99,,2013-07-24 03:57:00,
2013-07-23 22:00:00,55.0,20.0,-100.00,ESE,104,1.0,3.0,25,-99.99,,,-99.99,,2013-07-24 04:00:00,
2013-07-23 22:43:00,55.0,20.0,-100.00,ESE,104,1.0,3.0,25,-99.99,,,-99.99,,2013-07-24 04:43:00,
2013-07-23 22:53:00,55.0,20.0,-100.00,ESE,104,1.0,3.0,25,-99.99,,,-99.99,,2013-07-24 04:53:00,
2013-07-23 23:00:00,54.0,20.0,-100.00,SE,140,1.0,3.0,25,-99.99,,,-99.99,,2013-07-24 05:00:00,
2013-07-23 23:43:00,54.0,20.0,-100.00,SE,140,1.0,3.0,25,-99.99,,,-99.99,,2013-07-24 05:43:00,
2013-07-23 23:52:00,54.0,20.0,-100.00,SE,140,1.0,3.0,25,-99.99,,,-99.99,,2013-07-24 05:52:00,